This demonstration page uses our WeatherBlox Daily Observations layout. Learn more.

Left ArrowRight Arrow

53.62937, 11.41316

Hourly Observations for March 15, 2018

Temp ( °F °C ) Dew Point ( °F °C ) Humidity (%) Winds ( mph kmh ) Pressure ( in mb ) Visibility ( mi km ) Precip ( " mm )
6:50 am 06:50 Mostly Cloudy 36 2 34 1 93 93 E 10 17 29.83 1010 30 48 N/A
7:20 am 07:20 Mostly Cloudy with Drizzle 36 2 36 2 100 100 ESE 8 13 29.83 1010 6 9 N/A
7:50 am 07:50 Mostly Cloudy with Drizzle 36 2 36 2 100 100 E 8 13 29.83 1010 5 8 N/A
8:20 am 08:20 Mostly Cloudy with Drizzle 36 2 36 2 100 100 E 9 15 29.83 1010 3 5 N/A
8:50 am 08:50 Mostly Cloudy with Drizzle 36 2 36 2 100 100 E 9 15 29.83 1010 3 5 N/A
9:20 am 09:20 Mostly Cloudy 36 2 36 2 100 100 E 14 22 29.83 1010 5 8 N/A
9:50 am 09:50 Mostly Cloudy 36 2 36 2 100 100 E 12 19 29.83 1010 5 8 N/A
10:20 am 10:20 Mostly Cloudy 36 2 36 2 100 100 E 12 19 29.83 1010 6 9 N/A
10:50 am 10:50 Mostly Cloudy 36 2 36 2 100 100 E 12 19 29.83 1010 30 48 N/A
11:20 am 11:20 Mostly Cloudy 36 2 34 1 93 93 E 14 22 29.83 1010 30 48 N/A
11:50 am 11:50 Mostly Cloudy 36 2 34 1 93 93 E 14 22 29.83 1010 30 48 N/A
12:20 pm 12:20 Mostly Cloudy 36 2 34 1 93 93 E 15 24 29.83 1010 30 48 N/A
12:50 pm 12:50 Mostly Cloudy 36 2 32 0 87 87 E 15 24 29.80 1009 30 48 N/A
1:20 pm 13:20 Mostly Cloudy 37 3 32 0 81 81 E 14 22 29.80 1009 30 48 N/A
1:50 pm 13:50 Mostly Cloudy 37 3 32 0 81 81 E 15 24 29.80 1009 30 48 N/A
2:20 pm 14:20 Mostly Cloudy 37 3 32 0 81 81 E 14 22 29.77 1008 30 48 N/A
2:50 pm 14:50 Mostly Cloudy 37 3 32 0 81 81 E 14 22 29.77 1008 30 48 N/A
3:20 pm 15:20 Mostly Cloudy 37 3 32 0 81 81 E 15 24 29.77 1008 30 48 N/A
3:50 pm 15:50 Mostly Cloudy 37 3 32 0 81 81 E 14 22 29.77 1008 30 48 N/A
4:20 pm 16:20 Mostly Cloudy 37 3 30 -1 75 75 E 15 24 29.77 1008 30 48 N/A
4:50 pm 16:50 Mostly Cloudy 37 3 30 -1 75 75 E 14 22 29.74 1007 30 48 N/A
5:20 pm 17:20 Mostly Cloudy 37 3 30 -1 75 75 E 15 24 29.77 1008 30 48 N/A
5:50 pm 17:50 Mostly Cloudy 37 3 30 -1 75 75 E 15 24 29.77 1008 30 48 N/A
6:20 pm 18:20 Mostly Cloudy 36 2 30 -1 81 81 E 14 22 29.77 1008 30 48 N/A

Powered by AerisWeather